Location: Chantarel
(45.1638°N, 1.7873°E)
Time: 08:11:14
(UTC+00:00)

Cosmos 1727 Rocket - Pass Details

Date: 03 March 2021
Orbit: 961 x 996 km, 82.9° (Epoch: 11 April)

Event Time Altitude Azimuth Distance (km) Brightness Sun altitude
Rises 20:27:47 0° 348° (NNW) 3,657 7.4 -29.3°
Reaches altitude 10° 20:30:19 10° 346° (NNW) 2,708 6.7 -29.7°
Maximum altitude 20:36:25 63° 267° (W) 1,069 4.3 -30.7°
Enters shadow 20:37:45 51° 216° (SW) 1,202 4.4 -30.9°
